Regional Weather Roundup
Issued by NWS

Home | Current Version | Previous Version | Graphics & Text | Print | Product List | Glossary On
Versions: 1 2 3 4 5 6 7 8 9 10 11 12 13 14 15 16 17 18 19 20 21 22 23 24 25 26 27 28 29 30 31 32 33 34 35 36 37 38 39 40 41 42 43 44 45 46 47 48 49 50
000
ASUS43 KOAX 031102
RWRNE

WEATHER ROUNDUP FOR NEBRASKA
NATIONAL WEATHER SERVICE OMAHA NE
600 AM CDT FRI JUL 03 2015

NOTES: SATELLITE DATA IS BEING USED TO AUGMENT CLOUD COVER ABOVE
       12000 FEET.
       "FAIR" INDICATES FEW OR NO CLOUDS BELOW 12,000 FEET WITH NO
       SIGNIFICANT WEATHER AND/OR OBSTRUCTIONS TO VISIBILITY.

  * THESE STATIONS DO NOT REPORT WEATHER SUCH AS RAIN...SNOW OR FOG.

NEZ001>004-019>022-054>056-031200-
NEBRASKA PANHANDLE

CITY           SKY/WX    TMP DP  RH WIND       PRES   REMARKS
SCOTTSBLUFF    PTCLDY    61  58  90 CALM      30.14R
ALLIANCE       MOCLDY    57  56  96 W5        30.11S
CHADRON        CLEAR     57  55  93 SW5       30.10R
KIMBALL          N/A    N/A N/A N/A MISG        N/A
SIDNEY         CLEAR     58  57  97 NW5       30.15S
$$

NEZ057>060-069>072-079>082-031200-
SOUTHWEST NEBRASKA

CITY           SKY/WX    TMP DP  RH WIND       PRES   REMARKS
NORTH PLATTE   CLEAR     56  54  93 W3        30.06S
IMPERIAL       MOCLDY    62  57  83 NW3       30.09R
LEXINGTON      FOG       63  62  97 CALM      30.05R VSB 1/2
MCCOOK         PTCLDY    60  57  89 NW6       30.05R
$$

NEZ005>010-023>029-035>040-094-031200-
NORTH CENTRAL NEBRASKA

CITY           SKY/WX    TMP DP  RH WIND       PRES   REMARKS
VALENTINE      CLEAR     57  55  93 CALM      30.05R
AINSWORTH      FOG       56  56 100 S5        30.05S VSB 1/4
BROKEN BOW     CLOUDY    63  62  97 NW3       30.04S
ORD            CLEAR     55  54  96 NW3       30.02R
$$

NEZ041-046>049-061>064-073>077-083>087-031200-
SOUTH CENTRAL NEBRASKA

CITY           SKY/WX    TMP DP  RH WIND       PRES   REMARKS
GRAND ISLAND   CLOUDY    64  63  96 N6        30.02R FOG
AURORA         CLOUDY    64  64 100 N6        30.01R FOG
HASTINGS       CLOUDY    66  63  90 N8        30.01R FOG
KEARNEY *      CLOUDY    63  59  88 N8        30.03S
$$

NEZ011>018-030>034-042>045-031200-
NORTHEAST NEBRASKA

CITY           SKY/WX    TMP DP  RH WIND       PRES   REMARKS
NORFOLK        CLOUDY    64  62  93 CALM      30.02R FOG
COLUMBUS *     CLOUDY    63  55  77 CALM      30.01R
FREMONT        CLOUDY    62  56  80 CALM      30.01R
TEKAMAH        FOG       55  54  96 NW5       30.00S VSB 3/4
$$

NEZ050>053-065>068-078-088>093-031200-
SOUTHEAST NEBRASKA

CITY           SKY/WX    TMP DP  RH WIND       PRES   REMARKS
LINCOLN        CLOUDY    64  59  83 E7        29.99S
OMAHA EPPLEY   CLEAR     57  55  93 N8        29.99R
FALLS CITY     LGT RAIN  64  60  87 NE7       29.96R
$$

NEZ044-045-051>053-067-031200-
OMAHA AREA

CITY           SKY/WX    TMP DP  RH WIND       PRES   REMARKS
OMAHA EPPLEY   CLEAR     57  55  93 N8        29.99R
FREMONT        CLOUDY    62  56  80 CALM      30.01R
MILLARD        CLEAR     58  55  89 CALM      29.99S
OFFUTT AFB     CLEAR     58  55  88 CALM      29.98R
$$


USA.gov is the U.S. government's official web portal to all federal, state and local government web resources and services.